sat.trackr.live / text

‹ back to catalog

STARLINK-2491

NORAD 48148 · 2021-027BJ

PAYLOAD ACTIVE UNKNOWN

§ Identity

Operator
Country
US
Launch date
2021-04-07
Launch site
AFETR
Launch vehicle
Mass (kg)
RCS (m²)

Purposes: comms

External: N2YO · Heavens-Above · Gunter

§ Orbital elements

Epoch: 2026-09-20T05:13:42.286656Z

Period
94.01 min
Inclination
53.1599°
Eccentricity
0.0001380
Mean motion
15.31699570 rev/d
Perigee alt
469.8 km
Apogee alt
471.7 km
Semi-major
6,848.9 km
B*
1.0567e-5
RAAN
340.4129°
Arg perigee
87.8395°
Mean anomaly
272.2765°
Rev number
30,230

§ Raw data

STARLINK-24911 48148U 21027BJ  26263.21785054 -.00000037  00000+0  10567-4 0  99912 48148  53.1599 340.4129 0001380  87.8395 272.2765 15.31699570302309

JSON: /api/v1/satellites/48148 · /tle

For live sub-satellite position, see the globe view (requires WebGL).

§ Visibility from observer

Set your observer location to see the next 7 days of passes ≥ 10°. The values pass through the URL so the page stays shareable.

No JS? Fill the form by hand. The geolocation button needs JavaScript.